GEFSMA_500_meanwind_054.txt.gz
Wind_Speed
37 37 36 38 38 38 37 37 37 37 36 35 35 34 33 33 31 30 28 27 26 25 24 23 22 22 21 20 19 20 20 19 19 19 19 19 19 19 19 18 17 16 14
38 38 38 38 38 38 37 36 38 38 36 36 36 35 35 34 32 30 29 29 28 26 25 23 22 21 20 20 19 19 20 19 18 19 19 20 20 21 21 20 20 19 17
40 39 38 37 37 37 37 37 37 38 37 37 36 36 35 34 32 31 29 29 28 28 26 24 22 22 21 20 19 19 19 19 19 19 19 20 21 21 22 22 22 21 20
41 39 38 37 37 36 36 35 35 36 37 37 37 35 34 33 33 31 29 29 28 27 25 24 23 22 21 19 18 18 18 17 17 18 19 19 20 21 21 24 24 23 22
41 39 38 38 37 36 36 35 34 35 35 35 35 35 35 34 32 30 28 28 28 27 26 24 23 22 21 19 19 18 18 17 16 16 18 18 19 21 21 22 24 25 25
41 39 39 38 37 37 37 36 36 35 35 35 35 35 35 35 33 30 28 27 27 27 26 24 23 22 21 20 19 18 17 17 16 16 16 17 18 19 20 21 23 25 26
41 41 40 39 39 39 38 37 37 36 35 35 35 34 33 34 33 30 28 27 27 27 26 25 23 23 22 20 19 17 17 16 15 15 16 16 17 18 19 20 21 24 26
42 43 43 42 42 41 40 38 38 35 33 34 33 33 33 32 33 31 29 28 28 27 27 26 25 24 22 21 19 18 17 15 15 15 15 15 17 18 19 21 21 23 26
44 44 45 45 44 43 41 39 37 35 35 34 33 33 32 32 31 30 31 29 29 28 28 27 26 25 24 22 20 18 17 16 15 14 14 15 16 17 18 19 21 22 23
46 45 45 46 45 45 43 41 40 38 37 36 34 33 34 33 32 31 31 31 30 30 30 29 27 26 25 23 21 19 18 16 15 14 14 14 15 17 17 18 20 22 23
45 45 45 45 45 44 44 43 41 40 39 38 37 34 34 35 34 32 31 32 32 32 31 31 29 28 27 25 23 21 19 17 15 14 13 13 14 16 17 17 18 20 22
44 43 43 43 42 43 43 43 42 41 40 39 39 38 37 35 34 34 34 33 33 33 33 33 31 30 29 27 25 22 20 18 16 14 13 13 13 14 15 16 18 19 21
41 41 40 41 41 40 41 41 42 41 41 41 41 41 39 37 37 37 37 35 35 35 35 34 33 32 31 29 27 25 22 19 17 15 14 13 12 13 14 15 16 18 20
39 39 39 40 40 41 41 41 42 42 42 42 43 42 40 39 39 38 37 36 35 36 36 36 36 34 33 31 29 26 24 21 18 16 14 12 12 12 13 14 15 17 19
40 41 42 42 42 43 43 43 43 44 45 44 44 45 44 43 42 40 39 38 37 36 38 38 38 37 35 32 31 29 26 23 21 18 15 13 12 12 12 13 14 16 17
43 44 45 45 45 46 46 47 46 46 47 48 48 48 47 46 44 43 42 40 40 40 38 39 39 39 37 35 33 31 29 26 23 20 17 15 14 13 13 13 14 15 17
44 45 47 48 49 49 49 49 49 49 49 50 50 51 51 50 48 47 45 43 42 44 42 40 40 39 38 37 36 34 32 29 26 22 19 17 15 14 14 14 14 15 16
46 47 48 49 50 51 51 52 52 52 52 52 52 53 54 54 53 51 49 47 46 44 43 42 41 39 39 39 38 37 34 31 29 25 22 19 17 16 15 14 14 15 16
47 48 49 49 50 51 52 53 54 54 54 54 54 55 57 57 57 56 54 51 49 47 45 45 43 41 41 40 39 39 37 34 31 28 25 21 19 17 16 15 15 15 15
49 49 48 48 49 49 50 51 53 54 54 54 54 55 58 59 60 59 58 56 53 51 48 47 46 44 42 42 40 40 39 37 34 31 27 24 21 18 17 16 15 15 15
47 47 47 47 47 47 47 48 49 50 51 53 53 54 56 60 61 61 60 59 58 55 52 49 49 47 44 43 41 41 40 38 36 33 29 26 23 20 18 17 15 15 15
46 46 46 45 44 44 45 46 46 47 48 50 52 53 54 57 60 61 62 61 61 59 57 53 50 49 46 44 43 42 41 40 38 35 31 28 25 22 20 18 17 16 16
45 44 43 42 41 41 41 42 43 44 45 46 49 51 54 54 57 59 61 61 61 61 59 56 53 50 48 46 45 43 42 41 40 37 33 30 27 24 22 20 18 17 16
43 41 40 39 38 37 38 38 39 40 41 42 45 49 51 51 53 56 58 59 60 60 60 59 56 52 49 47 46 45 43 42 41 39 36 32 29 26 23 21 20 19 17
40 38 36 35 34 33 33 33 34 35 37 39 42 45 47 47 49 51 53 55 56 58 59 59 59 58 54 48 46 45 44 42 40 39 37 34 31 29 25 23 21 19 18
37 35 33 32 31 30 29 28 28 30 32 35 39 43 45 45 45 47 49 51 53 54 55 56 57 58 55 51 47 44 43 43 41 39 37 35 33 30 27 25 22 21 19

GEFSMA_500_meanwind_060.txt.gz
Wind_Speed
31 32 31 31 31 30 31 32 31 29 28 28 29 30 32 32 31 32 30 29 28 28 28 28 28 26 23 21 20 19 18 18 18 17 17 17 17 16 15 15 14 13 12
33 33 33 34 33 32 32 31 30 30 29 29 29 29 31 32 31 30 30 30 30 29 29 29 28 26 25 23 22 20 19 19 20 19 18 18 18 19 18 17 17 16 15
35 34 35 35 34 34 33 32 30 29 28 29 29 29 29 30 31 31 31 30 30 30 30 29 29 28 27 25 24 22 21 20 20 21 20 19 19 20 20 19 19 19 18
36 36 36 36 36 36 35 33 32 31 29 29 28 27 27 28 30 30 31 30 30 31 31 29 28 29 28 27 25 24 22 21 20 21 21 21 20 21 21 21 20 20 20
38 39 38 38 37 36 35 34 33 31 30 29 28 28 28 28 28 29 30 30 29 30 30 30 30 29 29 28 26 25 24 23 22 21 21 21 21 21 22 22 22 22 22
41 40 40 39 38 37 36 36 34 33 32 31 30 30 30 29 29 30 30 30 30 30 31 31 31 30 30 29 28 26 25 24 23 22 21 21 21 21 21 22 22 23 23
41 41 41 40 39 39 38 37 36 35 34 33 32 31 31 30 30 30 29 30 30 31 31 30 30 30 30 31 30 28 27 25 24 23 22 22 21 21 21 22 22 22 23
41 41 40 40 40 40 40 39 38 36 36 36 35 33 32 31 31 30 29 29 29 31 31 31 31 30 32 31 30 29 28 27 25 24 24 23 22 21 21 22 23 23 23
41 41 40 40 40 40 40 40 39 38 36 36 36 35 34 32 32 31 29 29 29 30 32 31 32 32 33 33 32 30 29 28 27 25 24 23 22 22 22 21 22 22 22
39 39 39 38 38 38 38 39 39 38 37 36 36 36 35 33 31 31 30 29 29 30 33 34 33 33 34 34 32 31 30 29 27 26 24 23 23 22 21 21 21 22 22
38 37 36 35 34 34 34 35 36 36 36 36 36 36 36 35 33 32 30 29 30 30 33 33 34 34 35 35 33 32 32 30 28 26 25 23 22 22 21 21 20 20 21
37 36 35 34 33 33 32 32 32 33 34 35 35 35 36 35 34 33 32 31 31 32 33 34 35 35 35 36 35 34 33 31 29 27 25 24 22 21 20 20 20 20 20
37 36 35 34 33 33 33 32 32 32 32 33 34 35 35 36 35 35 33 33 33 32 33 34 36 36 37 37 36 35 34 33 30 28 26 24 23 21 20 19 19 19 19
37 37 36 35 35 35 34 34 33 34 34 34 34 34 35 36 36 36 35 35 35 35 34 33 36 37 39 39 38 37 36 34 32 29 27 25 24 22 20 19 19 18 18
38 38 38 38 37 37 37 36 36 36 36 36 36 35 36 37 36 37 37 38 38 37 36 34 36 38 39 41 40 39 38 36 34 31 29 27 25 22 20 19 18 17 17
39 39 39 39 39 39 39 39 38 38 38 38 38 38 38 38 38 39 39 39 41 39 39 37 36 37 40 42 42 41 40 38 36 34 31 29 26 23 21 19 17 17 16
39 39 39 39 40 40 41 41 41 42 41 41 40 40 40 40 41 40 41 41 41 41 41 41 40 39 40 42 43 43 42 40 38 36 34 31 28 25 22 20 18 17 16
39 39 40 40 41 41 42 43 44 44 45 44 44 43 44 44 43 43 43 43 43 43 43 43 42 40 42 43 44 44 43 42 41 39 36 33 30 27 24 21 19 17 16
39 40 40 41 42 42 43 44 45 46 46 46 46 46 46 46 47 46 46 46 45 44 45 44 42 42 43 44 44 45 45 44 43 41 39 36 33 29 26 23 21 18 17
40 40 41 41 42 42 43 44 45 46 46 47 47 46 47 48 48 49 49 49 49 48 48 46 45 45 44 44 45 45 46 45 45 43 41 38 35 32 29 25 22 20 18
40 40 41 41 41 42 43 44 44 45 45 46 46 47 47 48 50 51 52 52 53 53 52 50 48 49 48 46 45 46 46 46 46 45 43 41 38 34 31 28 24 21 19
40 40 40 40 41 42 42 43 43 43 44 44 45 45 47 48 50 51 53 55 56 55 55 55 53 51 49 48 47 47 47 47 46 46 45 43 40 37 34 30 27 23 20
40 40 40 40 40 41 41 40 40 40 40 41 42 43 46 48 50 52 53 55 56 57 58 58 58 55 51 49 48 47 47 47 48 48 47 45 43 40 36 33 29 26 23
40 40 39 39 39 39 38 38 38 37 37 37 39 41 43 46 48 50 53 55 56 57 59 59 59 58 56 53 50 48 48 48 49 49 48 46 44 42 39 35 32 29 25
40 39 39 38 38 37 36 36 36 35 34 35 37 39 41 44 47 49 52 54 56 58 60 60 60 60 59 56 53 51 49 49 49 49 47 47 46 43 41 37 34 31 28
39 38 38 38 36 34 34 33 32 32 33 34 35 37 39 41 44 47 50 53 55 57 59 61 61 61 60 58 57 53 50 49 47 46 47 47 46 45 42 39 36 33 30

GEFSMA_500_meanwind_066.txt.gz
Wind_Speed
25 26 27 28 28 29 29 29 29 29 29 29 29 27 26 25 25 26 27 28 29 29 28 28 26 26 25 24 23 22 20 19 19 19 19 18 17 16 15 13 12 12 11
27 29 29 30 30 30 31 31 31 31 30 30 29 29 28 27 28 28 27 27 29 30 29 29 29 29 28 27 26 25 23 22 21 21 21 20 20 19 18 17 15 14 13
31 32 32 32 32 32 32 32 31 31 32 31 31 30 29 29 29 29 29 28 29 30 30 30 30 29 30 29 29 28 26 24 24 23 23 22 21 21 20 19 18 17 16
31 32 33 32 33 33 34 34 33 33 33 33 32 31 31 30 29 29 29 29 29 28 29 31 31 31 30 30 30 30 29 27 26 25 25 24 23 22 21 21 20 19 18
32 32 33 33 34 35 35 35 35 34 34 33 33 32 31 31 31 30 30 30 30 29 29 31 32 32 33 32 32 32 32 30 28 27 26 25 25 24 22 21 22 22 21
33 34 34 35 35 36 36 35 35 35 35 34 33 33 32 31 31 31 30 30 30 30 29 31 32 32 32 33 33 33 33 32 30 29 28 27 26 25 24 23 22 23 22
34 34 35 36 36 36 36 37 36 36 36 36 35 34 33 33 32 32 32 32 32 32 31 31 33 32 32 32 34 35 36 35 32 30 29 28 27 26 25 25 23 23 23
34 34 35 35 35 36 36 37 37 37 36 37 36 35 35 35 35 33 33 33 33 33 32 31 32 33 33 34 34 35 36 36 34 33 31 30 28 27 26 25 25 24 24
34 34 34 35 35 35 36 36 36 36 36 36 36 36 36 36 37 35 34 34 34 34 34 33 32 34 34 35 35 37 37 37 36 34 33 31 30 28 27 26 25 25 25
34 34 34 34 34 35 35 36 36 36 35 36 36 36 36 36 36 36 35 35 35 35 34 34 34 35 35 37 36 38 38 38 36 35 35 33 31 29 28 27 25 25 24
34 34 34 34 34 34 35 35 36 36 36 36 36 36 35 35 36 36 36 37 37 36 36 35 34 36 35 37 38 38 40 39 37 36 35 34 32 30 29 27 26 25 24
33 34 34 34 35 35 35 35 35 36 36 36 36 36 36 35 35 35 35 37 38 37 37 36 35 35 36 37 38 39 40 40 39 38 37 35 34 31 30 28 27 26 25
34 35 35 35 35 35 35 35 35 36 36 36 36 35 35 35 35 35 35 36 38 38 37 36 36 36 36 37 39 39 41 41 39 39 38 37 35 33 30 29 27 26 26
34 35 36 36 36 36 36 36 36 36 36 36 36 36 36 36 36 35 35 36 37 38 38 37 37 38 38 39 40 40 40 40 40 40 38 37 36 34 32 30 28 27 26
34 35 36 36 36 36 36 36 36 37 37 37 37 37 37 37 37 36 36 36 36 37 38 38 39 39 39 39 39 40 41 41 42 41 39 38 37 35 33 31 28 27 26
35 36 37 37 37 36 36 36 36 37 37 37 38 38 38 38 38 38 37 37 37 37 37 38 39 40 40 40 40 41 42 42 43 42 40 39 37 36 34 31 29 27 26
36 37 37 37 37 37 37 37 37 37 37 37 38 39 40 40 40 40 39 39 38 39 38 39 40 40 41 41 41 43 43 44 43 42 42 40 39 37 35 32 30 28 26
37 37 37 37 37 37 37 37 37 37 37 38 39 40 41 42 42 42 42 41 41 41 41 40 40 42 42 43 43 44 44 44 44 44 43 42 40 38 36 33 31 29 27
39 39 38 38 37 37 37 38 37 37 38 39 40 41 41 43 43 44 44 44 44 44 43 42 42 42 43 44 45 45 46 46 46 46 45 43 42 40 37 35 32 30 28
40 40 40 39 38 38 38 38 38 39 39 39 40 41 42 43 44 44 45 46 47 46 46 45 45 45 44 45 44 47 47 47 47 47 46 44 43 41 39 37 34 32 29
41 41 41 40 39 39 39 39 38 38 39 39 40 42 43 44 45 46 47 47 49 49 48 48 47 47 46 47 46 47 47 48 49 48 47 46 45 43 41 38 36 33 30
42 42 41 40 40 40 40 39 39 39 39 39 40 42 44 45 46 48 48 49 50 51 51 51 50 49 49 48 47 47 47 48 49 50 49 48 47 45 43 40 38 35 32
43 42 41 41 41 41 40 39 39 39 39 39 40 41 42 43 46 48 49 50 51 52 53 54 53 51 52 50 49 48 48 48 48 49 50 49 48 47 45 42 40 37 34
44 42 42 42 41 40 39 38 39 39 38 38 38 39 40 41 43 46 47 49 51 52 54 55 55 54 53 52 50 49 49 50 50 50 51 51 50 48 47 44 42 39 36
44 43 42 42 40 39 39 39 38 37 37 37 37 37 38 39 41 43 46 47 49 51 53 55 56 56 56 54 53 52 51 51 50 51 51 51 51 49 48 46 44 41 38
44 43 43 41 39 38 39 39 38 36 35 35 35 36 36 37 39 41 42 45 47 50 53 55 56 57 58 57 55 53 52 51 52 52 52 51 52 51 49 48 46 43 40

GEFSMA_500_meanwind_072.txt.gz
Wind_Speed
26 26 27 26 25 25 25 25 25 25 24 24 24 23 23 22 21 21 21 22 24 26 26 27 29 30 28 27 26 25 24 23 22 21 20 19 18 17 16 15 14 12 11
26 26 26 26 26 26 26 26 27 27 27 26 26 25 25 24 23 24 23 23 24 25 26 28 30 31 32 30 29 27 27 26 25 24 23 22 21 19 18 17 15 14 13
24 25 25 25 26 27 27 28 29 29 29 29 28 28 27 27 26 26 25 24 25 25 26 28 30 32 33 32 31 30 29 29 28 27 26 25 23 22 21 19 18 16 15
22 23 24 25 25 26 28 29 29 30 31 31 30 30 30 29 28 28 28 27 27 27 28 28 29 33 34 34 34 33 32 31 31 29 28 27 26 24 23 22 20 19 18
23 24 25 26 27 28 28 29 30 31 32 32 31 31 31 31 31 31 30 30 29 29 30 30 30 32 35 35 35 36 35 33 33 32 31 30 28 27 26 24 23 22 20
23 25 26 26 28 29 30 30 31 31 32 31 32 33 33 33 33 33 33 32 32 31 31 31 31 32 33 35 35 36 37 37 35 35 33 33 31 30 28 26 25 23 23
24 25 26 26 27 28 29 30 31 31 32 32 33 33 33 34 34 34 34 34 34 33 33 33 33 33 34 34 35 37 37 38 38 37 36 35 34 32 31 29 27 25 24
24 25 25 25 26 27 28 28 29 30 31 31 32 33 33 34 35 35 35 35 35 35 35 35 35 34 36 36 35 37 38 38 39 39 38 37 36 35 32 31 29 27 26
24 25 24 25 26 27 28 28 29 29 30 31 31 32 33 34 35 36 36 37 36 36 35 36 36 36 36 37 37 38 39 39 40 40 41 40 39 37 35 32 31 30 28
24 24 24 25 26 27 28 28 29 30 31 32 32 33 33 34 35 36 36 37 38 37 37 37 37 37 37 37 37 37 38 39 40 41 41 42 41 39 37 34 32 31 30
24 24 25 26 26 27 28 29 30 31 31 32 33 34 34 35 35 36 37 38 38 39 39 39 39 39 39 38 38 38 38 40 40 41 41 42 43 42 39 36 34 32 31
25 25 25 26 27 28 29 30 30 31 32 33 34 35 36 36 37 37 37 39 39 39 39 40 40 40 40 40 39 38 39 41 41 40 40 41 42 43 40 38 35 33 32
25 25 26 26 27 28 29 30 31 32 33 34 35 36 37 38 38 38 38 39 40 40 40 40 41 42 42 42 41 40 40 40 42 41 40 41 42 42 41 40 37 35 33
26 26 27 27 28 29 30 31 32 33 34 35 36 37 37 38 39 39 39 39 40 40 41 41 41 42 43 43 42 41 40 41 42 43 42 43 43 42 41 39 38 36 35
27 27 28 29 29 30 31 32 33 34 34 35 36 36 37 38 39 39 40 40 40 41 41 41 42 43 43 42 43 42 41 41 42 43 43 44 44 43 42 40 39 37 36
28 29 30 31 31 32 32 33 34 34 35 35 36 36 37 38 39 39 40 40 40 41 41 41 42 43 43 42 43 43 42 41 41 43 43 44 44 43 42 40 39 38 37
31 31 32 33 33 34 34 34 35 35 35 35 35 36 37 38 38 39 40 41 41 41 41 42 43 43 43 42 42 43 43 42 40 42 43 44 44 44 43 42 41 39 38
33 34 34 35 35 36 36 36 35 35 35 35 36 36 37 38 38 39 40 41 42 42 42 42 44 44 43 43 43 43 44 43 42 42 42 44 45 45 44 43 42 40 39
35 36 37 37 37 37 37 37 36 36 36 36 36 36 37 38 39 40 41 41 42 43 43 43 44 45 45 44 44 44 44 44 43 44 44 44 45 45 45 45 44 42 40
37 38 39 39 39 38 38 38 37 37 36 36 37 37 38 39 39 40 42 42 43 44 45 45 45 45 46 45 45 44 44 44 44 44 45 45 44 45 45 45 45 43 41
40 40 40 40 40 39 39 38 37 37 37 37 37 37 37 38 39 40 42 43 44 45 45 46 46 46 47 46 45 45 45 45 45 44 44 45 46 46 46 45 45 44 42
41 42 42 41 41 40 39 38 38 37 37 36 36 36 37 37 38 40 42 43 45 46 46 47 48 48 47 48 47 46 45 45 45 45 45 46 47 48 47 47 46 45 43
43 43 42 42 41 40 39 38 37 37 36 36 36 36 37 37 38 40 42 43 45 47 48 49 49 49 49 49 49 48 47 46 45 45 46 47 47 49 48 47 47 47 45
44 43 43 42 40 39 39 38 37 37 36 35 35 36 36 37 38 39 40 42 44 46 48 50 50 50 50 51 50 50 49 48 47 46 45 47 47 49 49 48 48 48 46
44 44 43 41 40 39 38 38 37 36 35 35 35 35 35 36 37 38 40 41 43 44 47 49 51 52 52 52 53 52 51 49 47 46 45 45 46 49 49 49 49 49 47
44 44 42 41 40 39 38 37 36 35 33 33 33 33 33 33 35 37 38 39 41 42 44 47 50 52 53 53 54 54 52 51 49 47 46 45 45 47 49 49 50 50 48